Tracking 19192 objects as of 19-Jun-2018
HD Live streaming from Space Station
objects crossing your sky now

SSU 1

Track SSU 1 now!
10-day predictions
SSU 1 is classified as:


NORAD ID: 8835
Int'l Code: 1976-038C
Perigee: 469.1 km
Apogee: 1,468.4 km
Inclination: 63.3 °
Period: 104.3 minutes
Semi major axis: 7339 km
RCS: Unknown
Launch date: April 30, 1976
Source: United States (US)
Launch site: AIR FORCE WESTERN TEST RANGE (AFWTR)
aabbcc
Your satellite tracking list
Your tracking list is empty




NASA's NSSDC Master Catalog

Two Line Element Set (TLE):
1 08835U 76038C   18158.09766488 0.00000110  00000-0  16509-4 0    09
2 08835  63.3125  58.3255 0680751 140.0600 219.9400 13.80648547    03
Source of the keplerian elements: McCants